FW7665 Weather Reports


Display with metric or nautical units.
time (UTC)temp
F
wind
direction
speed
MPH
gust
MPH
rain 1hr
in
rain 24hr
in
rain mn
in
humidity
%
barometer
mb
20210917153555 48 63 0.0 3.0 0.00 0.00 0.00 69 1022.1
20210917152655 46 67 1.0 3.0 0.00 0.00 0.00 71 1022.1
20210917151755 45 65 1.0 4.0 0.00 0.00 0.00 73 1022.1
20210917150855 44 72 2.0 4.0 0.00 0.00 0.00 75 1022.1
20210917145954 43 71 2.0 5.0 0.00 0.00 0.00 77 1022.1
20210917145055 42 64 0.0 3.0 0.00 0.00 0.00 77 1022.1
20210917144154 42 13 0.0 4.0 0.00 0.00 0.00 79 1022.1
20210917143254 41 36 0.0 2.0 0.00 0.00 0.00 80 1022.1
20210917142355 40 93 0.0 2.0 0.00 0.00 0.00 81 1022.1
20210917141454 39 142 0.0 2.0 0.00 0.00 0.00 80 1022.1
20210917140554 38 0 0.0 0.0 0.00 0.00 0.00 79 1022.1
20210917135654 38 0 0.0 0.0 0.00 0.00 0.00 77 1022.1
20210917134754 38 0 0.0 0.0 0.00 0.00 0.00 76 1022.1
20210917133854 38 0 0.0 0.0 0.00 0.00 0.00 76 1022.1
20210917132954 38 0 0.0 0.0 0.00 0.00 0.00 76 1022.1
20210917132054 38 0 0.0 0.0 0.00 0.00 0.00 75 1022.1
20210917131154 38 0 0.0 0.0 0.00 0.00 0.00 75 1022.1
20210917130254 39 0 0.0 0.0 0.00 0.00 0.00 74 1022.1
20210917125354 39 0 0.0 0.0 0.00 0.00 0.00 74 1022.1
20210917124454 39 0 0.0 0.0 0.00 0.00 0.00 73 1022.1
20210917123554 39 0 0.0 0.0 0.00 0.00 0.00 72 1022.1
20210917122654 39 0 0.0 0.0 0.00 0.00 0.00 72 1022.1
20210917121754 40 0 0.0 0.0 0.00 0.00 0.00 71 1022.1
20210917120854 40 0 0.0 0.0 0.00 0.00 0.00 71 1022.1
20210917115954 40 0 0.0 0.0 0.00 0.00 0.00 71 1022.1
20210917115054 40 0 0.0 0.0 0.00 0.00 0.00 70 1022.1
20210917114154 40 0 0.0 0.0 0.00 0.00 0.00 71 1022.1
20210917113254 41 0 0.0 0.0 0.00 0.00 0.00 70 1022.1
20210917112354 41 0 0.0 0.0 0.00 0.00 0.00 70 1022.1
20210917111454 41 0 0.0 0.0 0.00 0.00 0.00 67 1022.1
20210917110554 42 0 0.0 0.0 0.00 0.00 0.00 67 1022.1
20210917105654 42 0 0.0 0.0 0.00 0.00 0.00 67 1022.1
20210917104754 42 0 0.0 0.0 0.00 0.00 0.00 65 1022.1
20210917103853 42 0 0.0 0.0 0.00 0.00 0.00 65 1022.1
20210917102954 42 0 0.0 0.0 0.00 0.00 0.00 68 1022.1
20210917102054 42 0 0.0 0.0 0.00 0.00 0.00 67 1022.1
20210917101153 43 0 0.0 0.0 0.00 0.00 0.00 68 1022.1
20210917100253 43 0 0.0 0.0 0.00 0.00 0.00 68 1022.1
20210917095354 43 0 0.0 0.0 0.00 0.00 0.00 67 1022.1
20210917094454 43 0 0.0 0.0 0.00 0.00 0.00 67 1022.1
20210917093553 43 0 0.0 0.0 0.00 0.00 0.00 66 1022.1
20210917092653 44 0 0.0 0.0 0.00 0.00 0.00 65 1022.1
20210917091753 44 0 0.0 0.0 0.00 0.00 0.00 63 1022.1
20210917090853 44 0 0.0 0.0 0.00 0.00 0.00 60 1022.1
20210917085953 45 0 0.0 0.0 0.00 0.00 0.00 61 1022.1
20210917085053 46 0 0.0 0.0 0.00 0.00 0.00 58 1022.1
20210917084153 47 0 0.0 0.0 0.00 0.00 0.00 57 1022.1
20210917083253 48 109 1.0 5.0 0.00 0.00 0.00 58 1022.1
20210917082353 46 107 2.0 7.0 0.00 0.00 0.00 59 1022.1
20210917081453 44 0 0.0 0.0 0.00 0.00 0.00 54 1022.1
20210917080553 44 0 0.0 0.0 0.00 0.00 0.00 53 1022.1
20210917075653 44 0 0.0 0.0 0.00 0.00 0.00 54 1022.1
20210917074753 43 0 0.0 0.0 0.00 0.00 0.00 53 1022.1
20210917073853 43 0 0.0 0.0 0.00 0.00 0.00 53 1022.1
20210917072953 43 0 0.0 0.0 0.00 0.00 0.00 54 1022.1
20210917072053 44 0 0.0 0.0 0.00 0.00 0.00 53 1022.1
20210917071153 44 0 0.0 0.0 0.00 0.00 0.00 50 1022.1
20210917070253 44 0 0.0 0.0 0.00 0.00 0.00 50 1022.1
20210917065353 45 0 0.0 0.0 0.00 0.00 0.00 50 1022.1
20210917064453 45 0 0.0 0.0 0.00 0.00 0.00 50 1022.1
20210917063553 46 0 0.0 0.0 0.00 0.00 0.00 52 1022.1
20210917062653 46 0 0.0 0.0 0.00 0.00 0.00 52 1022.1
20210917061752 46 0 0.0 0.0 0.00 0.00 0.00 52 1022.1
20210917060853 46 0 0.0 0.0 0.00 0.00 0.00 53 1022.1
20210917055953 47 0 0.0 0.0 0.00 0.00 0.00 51 1022.1
20210917055053 47 0 0.0 0.0 0.00 0.00 0.00 50 1022.1
20210917054152 48 0 0.0 0.0 0.00 0.00 0.00 50 1022.1
20210917053253 48 0 0.0 0.0 0.00 0.00 0.00 51 1022.1
20210917052353 48 0 0.0 0.0 0.00 0.00 0.00 49 1022.1
20210917051452 49 0 0.0 0.0 0.00 0.00 0.00 51 1022.1
20210917050552 49 0 0.0 0.0 0.00 0.00 0.00 50 1021.8
20210917045652 50 0 0.0 0.0 0.00 0.00 0.00 49 1021.8
20210917044752 50 0 0.0 0.0 0.00 0.00 0.00 50 1021.8
20210917043852 51 0 0.0 0.0 0.00 0.00 0.00 50 1021.8
20210917042952 51 0 0.0 0.0 0.00 0.00 0.00 48 1021.8
20210917042052 51 0 0.0 0.0 0.00 0.00 0.00 46 1021.8
20210917041152 52 0 0.0 0.0 0.00 0.00 0.00 45 1021.8
20210917040252 52 0 0.0 0.0 0.00 0.00 0.00 46 1021.8
20210917035352 52 0 0.0 0.0 0.00 0.00 0.00 46 1021.8
20210917034452 52 0 0.0 0.0 0.00 0.00 0.00 50 1021.8
20210917033552 53 237 0.0 2.0 0.00 0.00 0.00 49 1021.8
20210917032652 53 237 0.0 2.0 0.00 0.00 0.00 49 1021.8
20210917031752 53 0 0.0 0.0 0.00 0.00 0.00 48 1021.8
20210917030852 53 0 0.0 0.0 0.00 0.00 0.00 45 1021.8
20210917025952 53 0 0.0 0.0 0.00 0.00 0.00 45 1021.8
20210917025052 54 0 0.0 0.0 0.00 0.00 0.00 47 1021.8
20210917024152 54 0 0.0 0.0 0.00 0.00 0.00 47 1021.8
20210917023252 54 0 0.0 0.0 0.00 0.00 0.00 43 1021.8
20210917022352 54 237 0.0 2.0 0.00 0.00 0.00 43 1021.8
20210917021452 55 0 0.0 0.0 0.00 0.00 0.00 42 1021.8
20210917020552 55 235 0.0 4.0 0.00 0.00 0.00 41 1021.8
20210917015652 56 231 0.0 4.0 0.00 0.00 0.00 40 1021.8
20210917014752 56 227 0.0 1.0 0.00 0.00 0.00 41 1021.8
20210917013852 57 227 0.0 1.0 0.00 0.00 0.00 39 1021.8
20210917012951 58 0 0.0 0.0 0.00 0.00 0.00 38 1021.8
20210917012052 59 227 0.0 1.0 0.00 0.00 0.00 38 1021.8
20210917011152 59 227 0.0 1.0 0.00 0.00 0.00 36 1021.8
20210917010251 60 227 0.0 1.0 0.00 0.00 0.00 35 1021.8
20210917005351 61 227 0.0 1.0 0.00 0.00 0.00 34 1021.8
20210917004452 63 227 0.0 1.0 0.00 0.00 0.00 29 1021.8
20210917003551 64 0 0.0 0.0 0.00 0.00 0.00 31 1021.8
20210917002651 66 232 0.0 2.0 0.00 0.00 0.00 29 1021.8
20210917001751 67 240 0.0 1.0 0.00 0.00 0.00 25 1021.8
20210917000851 69 0 0.0 0.0 0.00 0.00 0.00 24 1021.8
20210916235951 70 201 1.0 9.0 0.00 0.00 0.00 19 1021.8
20210916235051 70 203 1.0 12.0 0.00 0.00 0.00 17 1021.8
20210916234151 70 226 1.0 7.0 0.00 0.00 0.00 17 1021.8
20210916233251 71 137 1.0 5.0 0.00 0.00 0.00 17 1021.8
20210916232351 71 201 1.0 3.0 0.00 0.00 0.00 17 1021.8
20210916231451 71 212 2.0 7.0 0.00 0.00 0.00 16 1021.8
20210916230551 71 197 1.0 6.0 0.00 0.00 0.00 17 1021.8
20210916225651 71 143 1.0 3.0 0.00 0.00 0.00 17 1021.8
20210916224751 72 195 2.0 6.0 0.00 0.00 0.00 17 1021.8
20210916223851 72 180 2.0 9.0 0.00 0.00 0.00 19 1021.8
20210916222951 73 142 1.0 6.0 0.00 0.00 0.00 21 1021.8
20210916222051 74 197 3.0 9.0 0.00 0.00 0.00 16 1021.8
20210916221151 74 219 1.0 6.0 0.00 0.00 0.00 16 1021.8
20210916220251 74 198 1.0 4.0 0.00 0.00 0.00 18 1021.8
20210916215351 74 209 2.0 8.0 0.00 0.00 0.00 17 1021.8
20210916214451 73 215 2.0 8.0 0.00 0.00 0.00 19 1021.8
20210916213551 73 252 2.0 7.0 0.00 0.00 0.00 18 1021.8
20210916212651 74 255 2.0 10.0 0.00 0.00 0.00 22 1021.8
20210916211751 74 214 2.0 7.0 0.00 0.00 0.00 20 1021.8
20210916210851 73 228 2.0 5.0 0.00 0.00 0.00 19 1021.8
20210916205951 74 205 2.0 6.0 0.00 0.00 0.00 18 1021.8
20210916205051 74 10 3.0 7.0 0.00 0.00 0.00 18 1021.8
20210916204151 75 57 1.0 7.0 0.00 0.00 0.00 17 1021.8
20210916203250 75 75 4.0 13.0 0.00 0.00 0.00 17 1021.8
20210916202350 74 72 2.0 8.0 0.00 0.00 0.00 20 1021.8
20210916201450 74 202 1.0 5.0 0.00 0.00 0.00 19 1021.8
20210916200550 74 343 1.0 3.0 0.00 0.00 0.00 18 1021.8
20210916195650 75 315 2.0 11.0 0.00 0.00 0.00 18 1021.8
20210916194750 77 341 4.0 14.0 0.00 0.00 0.00 15 1021.8
20210916193850 78 27 3.0 5.0 0.00 0.00 0.00 17 1021.8
20210916192950 77 29 2.0 8.0 0.00 0.00 0.00 21 1021.8
20210916192050 76 55 2.0 8.0 0.00 0.00 0.00 18 1021.8
20210916191150 76 63 4.0 9.0 0.00 0.00 0.00 17 1021.8
20210916190250 75 44 2.0 8.0 0.00 0.00 0.00 20 1021.8
20210916185350 74 162 1.0 3.0 0.00 0.00 0.00 16 1021.8
20210916184450 75 235 1.0 4.0 0.00 0.00 0.00 17 1021.8
20210916183550 76 126 2.0 7.0 0.00 0.00 0.00 16 1021.8
20210916182650 77 30 3.0 9.0 0.00 0.00 0.00 17 1021.8
20210916181750 77 58 2.0 7.0 0.00 0.00 0.00 17 1021.8
20210916180850 76 45 5.0 12.0 0.00 0.00 0.00 19 1021.8
20210916175950 76 348 3.0 13.0 0.00 0.00 0.00 15 1021.8
20210916175050 76 68 3.0 7.0 0.00 0.00 0.00 19 1021.8
20210916174150 76 16 4.0 11.0 0.00 0.00 0.00 17 1021.8
20210916173250 75 347 3.0 11.0 0.00 0.00 0.00 18 1021.8
20210916172350 75 331 3.0 13.0 0.00 0.00 0.00 18 1021.8
20210916171450 75 354 2.0 10.0 0.00 0.00 0.00 20 1021.8
20210916170550 75 41 2.0 7.0 0.00 0.00 0.00 18 1021.8
20210916165650 74 66 2.0 8.0 0.00 0.00 0.00 19 1021.8
20210916164750 73 77 1.0 8.0 0.00 0.00 0.00 18 1021.8
20210916163850 72 48 2.0 7.0 0.00 0.00 0.00 21 1021.8
20210916162950 70 45 2.0 7.0 0.00 0.00 0.00 22 1021.8
20210916162050 68 282 1.0 4.0 0.00 0.00 0.00 31 1021.8
20210916161150 67 307 2.0 4.0 0.00 0.00 0.00 25 1021.8
20210916160249 65 15 2.0 6.0 0.00 0.00 0.00 27 1021.8
20210916155349 62 31 2.0 6.0 0.00 0.00 0.00 29 1021.8
20210916154450 57 67 1.0 3.0 0.00 0.00 0.00 38 1021.8